Wind_Speed
9 8 8 7 7 7 7 6 7 6 6 4 4 4 3 2 1 0 2 2 2 2 3 4 6 7 6 6 6 6 6 7 8 8 9 9 9 10 10 10 10 10 10 10 11 11 11 11 11
10 10 9 9 8 6 7 7 6 6 6 6 4 3 3 2 2 0 2 3 3 3 4 5 6 6 6 7 6 6 7 7 8 8 9 10 10 10 10 10 10 10 10 10 11 11 11 12 11
11 11 10 10 9 8 7 8 6 6 6 6 5 4 3 2 2 0 1 2 3 3 4 5 6 6 6 6 6 6 7 7 8 8 10 10 10 11 11 10 11 11 11 11 11 11 11 11 11
12 12 11 10 11 9 8 8 8 6 5 5 4 4 3 2 1 0 1 2 3 3 5 5 6 5 5 5 6 6 7 7 8 9 10 10 10 10 10 11 11 11 11 12 12 12 12 12 11
14 13 12 11 11 10 9 9 7 7 6 5 5 4 3 2 1 0 1 2 3 4 5 5 5 5 5 5 5 7 7 8 9 10 10 10 10 10 11 11 12 12 12 13 12 12 12 12 11
15 15 14 12 11 10 9 10 9 8 6 6 5 4 3 2 1 1 2 3 4 5 5 5 5 4 5 5 6 7 8 9 9 10 10 10 10 11 11 12 12 13 13 13 12 12 12 12 12
16 16 15 13 12 11 10 10 10 8 7 5 5 4 3 2 1 0 2 3 4 4 4 4 5 4 4 5 7 8 8 9 10 10 10 10 11 11 12 12 13 13 13 13 13 13 13 13 12
17 16 16 13 12 11 11 10 10 8 7 6 5 4 3 2 1 1 2 3 4 4 3 4 4 4 4 6 8 9 9 9 10 10 10 11 11 12 12 13 13 13 14 13 13 13 13 13 13
17 16 16 14 13 11 11 10 8 8 7 5 4 4 3 2 2 2 2 3 4 4 4 4 4 4 5 6 7 8 9 9 10 10 10 11 11 12 13 13 14 14 14 14 14 13 13 13 13
18 16 15 15 13 11 11 9 8 7 7 5 4 3 2 1 2 3 3 3 3 3 4 4 4 4 5 7 7 8 9 9 10 10 10 11 11 12 13 14 15 15 14 14 14 14 14 13 13
18 16 16 14 12 11 10 9 8 6 6 5 4 2 2 1 2 2 2 3 3 3 4 4 4 4 5 6 7 8 9 9 9 9 10 11 12 13 14 14 15 15 15 15 15 15 14 13 13
20 16 14 14 12 11 11 9 7 6 5 4 3 2 1 1 1 2 2 3 2 3 3 3 4 5 5 6 6 7 8 9 9 10 11 12 12 13 14 15 15 16 16 16 16 15 14 13 12
20 18 14 14 13 11 10 9 7 7 5 4 3 2 1 1 2 2 2 3 3 3 4 4 4 5 5 6 6 7 8 9 9 10 11 12 13 13 14 15 16 17 17 17 16 15 14 12 11
20 17 16 15 15 13 11 9 9 7 6 5 3 2 1 2 2 1 2 2 3 3 4 4 4 5 6 6 6 7 8 9 9 10 11 12 13 13 14 15 17 17 18 17 16 15 14 12 11
20 18 16 16 14 13 12 10 8 7 6 5 3 2 2 2 2 1 1 2 3 3 3 4 5 6 6 6 6 7 8 9 9 10 11 12 12 13 14 15 17 17 18 17 17 15 14 12 11
21 19 18 17 15 13 11 9 8 7 5 5 4 2 2 2 1 1 2 3 3 4 4 5 6 6 6 6 7 8 8 9 10 10 10 11 12 13 15 16 16 18 18 18 17 16 15 13 11
23 21 20 17 16 14 12 10 8 7 6 4 4 3 2 1 1 1 2 2 3 3 4 5 6 6 6 6 7 8 9 9 10 10 11 11 12 13 15 16 17 17 17 18 17 16 15 13 11
22 21 20 18 17 14 12 11 9 8 6 5 3 3 2 2 2 2 2 1 2 2 3 4 5 6 6 6 7 8 9 9 10 11 11 12 12 13 15 16 16 17 18 18 17 16 15 13 11
22 22 20 19 18 15 13 11 10 8 7 5 4 3 2 2 2 2 1 1 1 2 3 4 5 6 6 6 7 7 9 9 10 11 11 12 12 13 14 16 16 17 17 18 17 16 14 13 11
23 22 21 19 19 16 13 11 11 9 8 6 5 3 3 2 2 1 1 1 1 2 2 3 4 5 5 6 6 7 8 9 10 11 11 12 13 13 14 15 16 16 17 17 16 15 14 13 12
23 22 20 19 18 15 13 12 12 11 9 7 5 4 3 3 2 1 1 0 0 1 2 3 4 5 5 6 6 7 8 9 10 11 12 12 13 13 14 15 16 16 17 17 16 15 14 13 12
23 21 20 19 17 16 14 13 14 11 8 6 5 4 3 3 2 2 1 0 0 1 2 2 3 4 5 5 6 7 8 9 9 10 11 12 13 13 14 15 16 16 17 17 16 15 14 13 12
22 22 20 18 16 15 15 14 12 10 7 5 3 3 3 2 2 1 1 1 0 1 1 2 3 4 5 5 6 7 8 8 9 10 11 12 13 13 14 14 15 16 16 16 16 16 15 14 12
23 22 21 19 18 16 15 13 10 8 6 4 3 2 2 1 1 1 1 1 1 0 1 2 4 4 4 5 6 6 7 8 9 10 11 12 13 13 13 14 15 15 16 16 15 16 15 14 13
23 22 22 19 18 16 14 12 9 8 6 4 3 2 1 1 1 1 2 2 1 1 1 2 3 4 5 5 6 7 8 8 9 10 11 12 13 13 13 14 14 15 15 15 15 15 15 14 14
22 21 20 18 18 17 15 13 10 8 6 5 4 2 2 2 2 2 2 2 2 2 2 2 3 4 5 6 7 7 8 9 10 10 11 12 13 14 14 14 14 15 15 15 15 15 15 15 14
21 22 20 19 18 16 15 13 11 9 7 6 4 3 3 3 2 2 3 3 2 2 1 2 3 4 4 5 6 8 9 9 10 10 11 12 14 14 14 14 15 15 15 16 16 16 16 15 15
20 19 19 18 18 16 14 13 9 9 8 6 4 3 3 3 3 3 3 2 2 1 0 1 2 3 4 5 6 7 9 10 10 11 12 13 14 14 14 15 15 15 16 16 16 16 16 16 16
18 18 18 17 15 14 13 11 9 8 7 6 5 4 4 4 4 3 3 2 2 2 2 2 3 4 5 5 6 8 9 10 11 12 13 14 15 16 15 15 15 16 16 16 17 17 17 17 17
17 16 16 16 16 14 13 11 10 9 7 7 6 5 5 4 4 4 3 3 3 3 3 4 4 5 6 7 8 9 10 11 12 13 14 15 16 17 17 17 17 17 17 17 18 18 18 18 18
Wind_Direction
206 198 190 187 188 191 185 182 185 178 176 169 179 170 161 153 155 251 295 322 340 352 359 351 351 352 351 348 344 346 348 347 345 344 341 337 335 331 328 325 321 317 313 309 302 295 293 289 284
201 197 193 192 192 191 185 182 181 180 173 173 186 184 174 158 146 172 303 327 336 1 2 350 351 349 348 346 344 348 350 347 347 347 342 337 333 332 330 328 325 320 317 313 307 299 295 291 283
202 200 201 202 196 187 177 179 176 175 175 176 185 190 188 175 168 254 330 344 10 12 359 348 346 343 345 348 348 349 350 348 346 343 339 335 333 333 331 329 327 323 319 314 308 302 297 293 285
206 204 205 204 195 187 178 176 177 169 172 176 180 186 182 175 183 237 340 358 1 356 350 343 341 340 341 343 344 346 346 344 341 340 338 335 334 334 332 329 327 324 319 313 308 303 297 294 290
206 204 202 198 193 189 184 180 173 161 156 165 166 169 172 172 178 315 346 352 347 343 342 338 335 333 334 336 342 342 341 341 340 340 340 338 337 336 334 331 329 326 322 316 311 306 300 295 291
209 208 204 202 198 193 184 176 169 165 158 168 170 170 173 177 188 307 329 340 337 333 335 336 336 335 336 339 340 342 341 340 341 342 341 341 339 336 335 334 333 330 327 323 317 311 305 300 293
210 209 210 209 204 196 186 180 173 172 174 178 184 187 183 187 208 278 328 331 332 331 335 338 336 336 341 343 339 335 338 341 341 341 340 340 339 338 339 338 337 335 331 326 320 315 310 305 297
211 210 209 206 200 196 187 178 174 174 177 185 198 206 198 194 221 272 313 326 328 328 329 331 333 335 338 340 340 337 338 341 340 341 341 340 340 341 341 340 339 337 334 327 322 318 313 307 301
212 211 211 206 197 186 183 177 176 182 183 185 199 204 200 215 262 290 308 323 323 320 323 325 329 328 330 332 337 336 338 340 341 346 347 344 344 343 342 343 341 339 336 331 325 321 316 309 302
206 208 207 202 193 186 181 180 178 178 183 190 186 178 193 242 284 297 316 328 330 325 323 323 318 316 321 330 336 338 342 343 347 353 353 350 348 346 345 344 342 341 339 336 330 324 319 313 304
208 211 205 196 190 187 188 184 180 183 185 180 171 170 199 267 293 309 323 330 325 317 318 313 310 313 322 328 333 340 344 347 351 353 353 353 352 350 349 347 345 344 343 341 336 330 324 316 308
208 208 203 198 195 193 189 188 185 184 185 179 180 186 197 304 332 325 317 310 304 307 311 300 304 312 317 322 330 339 346 349 350 351 352 352 352 352 353 353 351 349 346 343 339 336 329 322 313
202 204 203 199 198 193 185 188 188 191 192 197 198 198 226 297 303 307 310 311 312 321 324 315 317 318 319 327 335 340 347 351 351 349 350 351 352 353 353 353 353 351 349 347 343 339 333 325 319
198 197 193 196 198 191 188 192 194 195 199 203 205 223 260 289 290 294 308 321 320 329 332 329 331 326 329 338 343 347 349 351 351 349 350 351 352 354 354 353 353 352 352 350 348 344 340 331 322
199 197 193 192 190 190 193 196 205 204 206 210 223 236 251 275 275 282 302 321 330 331 330 333 337 335 336 342 351 350 349 351 350 350 351 353 354 355 354 354 354 354 354 353 352 350 347 339 328
196 193 187 184 185 189 191 195 201 202 205 215 223 228 246 256 280 290 309 321 330 332 332 339 341 342 343 347 351 348 348 350 352 353 353 354 355 356 355 355 356 356 355 355 355 353 350 346 337
195 192 191 188 190 192 192 193 188 192 201 207 203 217 240 245 261 261 291 316 328 337 337 340 340 344 349 350 352 350 349 352 355 356 355 354 354 355 357 357 358 357 357 358 359 357 355 352 348
191 191 192 191 189 192 191 190 190 195 202 205 204 209 228 235 247 244 260 307 333 337 342 345 344 348 353 353 352 352 353 355 356 357 357 356 356 356 358 359 359 360 359 360 1 2 1 1 0
190 188 188 185 181 186 189 191 195 199 198 198 209 213 213 231 250 262 257 291 342 349 350 353 349 350 351 353 352 354 357 358 357 358 358 358 359 359 359 360 359 360 1 2 3 4 6 8 8
189 185 182 181 178 181 187 193 195 196 193 195 203 204 210 228 252 259 253 295 349 354 352 354 352 350 351 353 353 356 358 359 360 359 358 360 360 359 359 0 1 1 2 4 6 7 10 13 14
185 178 178 181 177 180 187 190 187 189 189 190 197 208 212 224 238 240 253 232 357 352 348 354 357 354 356 356 357 0 2 1 1 1 2 2 0 1 3 3 5 6 6 7 8 10 12 13 15
179 177 178 177 181 184 185 180 180 180 179 184 189 202 205 204 212 235 269 258 346 2 2 6 4 3 360 357 359 2 3 2 1 1 0 360 360 1 2 4 5 7 8 9 9 10 11 11 14
173 171 171 174 180 183 182 179 178 176 173 179 185 188 180 189 201 221 244 244 290 25 21 14 10 9 3 359 360 3 3 2 1 359 357 357 357 357 358 359 2 4 6 7 7 7 9 10 12
175 174 176 178 182 184 181 181 177 176 177 178 173 175 163 172 188 211 215 211 210 55 27 18 18 17 14 8 4 2 1 1 359 358 358 358 357 357 357 358 359 1 2 3 4 6 8 8 9
176 178 178 181 185 185 180 176 174 178 185 189 176 176 172 169 178 197 200 192 179 134 67 41 29 25 22 17 12 7 4 2 1 359 357 357 359 360 360 0 1 1 1 2 3 3 3 3 3
180 185 185 188 188 189 188 186 182 181 185 187 182 184 200 201 192 180 178 168 151 127 87 59 33 25 23 19 16 11 6 2 359 357 356 356 356 357 358 358 358 358 358 359 359 359 360 0 0
186 188 192 195 195 198 192 190 191 189 185 184 182 186 201 207 201 185 179 170 153 132 94 52 26 17 15 12 9 6 3 358 356 356 356 354 353 352 353 353 352 353 353 354 354 355 355 356 356
187 188 190 195 197 200 200 196 192 187 179 180 185 193 206 210 202 194 193 190 186 200 309 355 358 354 354 356 357 357 357 356 354 353 353 352 351 351 350 349 349 349 347 346 345 347 348 347 347
189 192 194 198 202 201 199 192 192 186 186 193 203 213 218 213 207 206 209 213 223 247 273 293 311 322 329 334 339 343 345 347 347 346 346 345 345 346 345 344 343 343 343 342 341 339 340 340 339
192 201 205 208 209 206 207 203 203 195 192 197 202 210 216 212 210 216 223 232 246 263 276 285 296 305 312 319 326 331 334 336 339 340 340 339 339 339 338 337 336 337 337 337 336 335 335 334 333
Height
5883 5883 5884 5885 5886 5886 5886 5887 5887 5888 5890 5890 5890 5891 5892 5893 5895 5896 5893 5891 5891 5891 5890 5890 5889 5888 5887 5886 5885 5884 5883 5882 5881 5879 5878 5876 5875 5873 5871 5870 5868 5867 5865 5864 5862 5861 5860 5859 5859
5881 5882 5884 5885 5885 5885 5886 5886 5887 5888 5889 5890 5890 5891 5892 5892 5893 5893 5892 5891 5891 5890 5890 5889 5889 5888 5887 5886 5885 5884 5883 5882 5880 5879 5877 5875 5874 5872 5870 5869 5867 5865 5864 5862 5861 5859 5858 5857 5857
5880 5881 5883 5884 5884 5885 5885 5886 5887 5888 5889 5889 5890 5891 5892 5893 5893 5892 5892 5891 5891 5890 5890 5889 5888 5887 5887 5886 5885 5884 5882 5881 5879 5878 5876 5874 5873 5871 5869 5867 5866 5864 5862 5860 5859 5857 5856 5855 5854
5879 5881 5882 5883 5883 5884 5885 5886 5887 5888 5889 5889 5890 5891 5891 5892 5892 5892 5891 5891 5891 5890 5889 5889 5888 5887 5886 5885 5884 5883 5882 5880 5879 5877 5875 5873 5871 5869 5868 5866 5864 5862 5860 5859 5857 5855 5854 5853 5852
5877 5879 5880 5881 5882 5883 5884 5885 5886 5887 5888 5889 5890 5890 5891 5892 5891 5891 5891 5890 5890 5889 5889 5888 5887 5886 5886 5885 5883 5882 5881 5879 5878 5876 5874 5872 5870 5868 5866 5864 5862 5861 5858 5856 5855 5853 5852 5851 5850
5876 5877 5879 5880 5881 5882 5883 5884 5886 5887 5888 5889 5889 5890 5890 5891 5891 5890 5890 5890 5889 5889 5888 5887 5887 5886 5885 5884 5883 5881 5880 5878 5877 5875 5873 5871 5869 5867 5865 5863 5861 5858 5856 5854 5852 5851 5849 5848 5847
5875 5876 5877 5879 5880 5881 5882 5883 5886 5887 5888 5888 5889 5890 5890 5890 5890 5890 5890 5889 5889 5888 5887 5887 5886 5885 5884 5883 5882 5881 5879 5877 5876 5874 5872 5870 5867 5865 5863 5861 5859 5856 5854 5852 5850 5848 5846 5845 5844
5871 5874 5875 5877 5879 5880 5882 5883 5884 5886 5887 5888 5889 5889 5890 5890 5890 5889 5889 5889 5888 5888 5887 5886 5886 5885 5884 5883 5881 5880 5878 5876 5874 5872 5870 5868 5866 5864 5862 5859 5857 5855 5852 5850 5847 5846 5844 5842 5841
5869 5873 5873 5875 5878 5880 5881 5883 5884 5885 5886 5887 5888 5888 5889 5889 5889 5889 5889 5888 5888 5887 5886 5886 5885 5884 5883 5882 5880 5879 5877 5875 5873 5871 5869 5867 5865 5862 5860 5858 5855 5853 5850 5847 5845 5843 5841 5839 5838
5868 5870 5871 5873 5876 5878 5880 5882 5884 5885 5886 5886 5887 5887 5888 5888 5888 5888 5888 5887 5887 5886 5886 5885 5884 5883 5882 5881 5879 5878 5876 5873 5871 5869 5868 5866 5863 5861 5858 5856 5853 5851 5848 5845 5843 5840 5838 5836 5835
5865 5868 5869 5872 5875 5877 5879 5881 5883 5884 5885 5886 5886 5887 5887 5887 5887 5887 5887 5887 5886 5886 5885 5884 5883 5882 5881 5880 5878 5876 5874 5873 5871 5869 5867 5865 5862 5860 5857 5854 5852 5849 5846 5843 5840 5837 5835 5833 5832
5863 5865 5867 5871 5874 5876 5878 5880 5882 5883 5885 5885 5886 5887 5887 5887 5887 5887 5887 5886 5886 5885 5884 5883 5883 5881 5880 5879 5877 5875 5874 5872 5870 5868 5866 5864 5861 5859 5856 5853 5850 5847 5844 5841 5838 5835 5833 5831 5829
5861 5864 5867 5870 5873 5875 5877 5879 5880 5882 5883 5884 5885 5886 5887 5887 5887 5886 5886 5885 5885 5884 5883 5882 5881 5880 5879 5878 5876 5874 5873 5871 5869 5867 5865 5862 5860 5857 5855 5852 5849 5846 5842 5839 5836 5833 5830 5828 5826
5859 5862 5866 5868 5871 5874 5876 5878 5880 5881 5882 5883 5884 5885 5886 5886 5886 5885 5885 5884 5884 5883 5882 5881 5880 5879 5878 5876 5875 5873 5872 5870 5868 5866 5864 5861 5859 5856 5854 5851 5847 5844 5841 5837 5834 5831 5828 5826 5824
5857 5861 5864 5867 5870 5872 5875 5877 5879 5880 5881 5882 5883 5884 5884 5884 5885 5884 5884 5883 5883 5882 5881 5880 5879 5878 5877 5875 5874 5872 5871 5869 5867 5865 5862 5860 5858 5855 5852 5849 5846 5843 5839 5836 5832 5829 5826 5824 5822
5855 5860 5863 5866 5868 5871 5875 5877 5877 5879 5880 5881 5882 5882 5883 5883 5883 5883 5882 5882 5881 5881 5880 5879 5878 5877 5876 5874 5873 5871 5870 5868 5866 5863 5861 5859 5857 5854 5851 5848 5845 5841 5838 5834 5831 5827 5824 5822 5820
5854 5858 5861 5865 5867 5870 5873 5875 5876 5878 5879 5880 5881 5881 5881 5882 5882 5882 5882 5881 5881 5880 5879 5878 5877 5876 5875 5874 5872 5870 5869 5867 5865 5862 5860 5858 5856 5853 5850 5847 5844 5841 5837 5833 5830 5826 5823 5821 5818
5852 5856 5859 5863 5865 5868 5871 5873 5875 5876 5877 5878 5880 5880 5880 5881 5881 5881 5881 5880 5880 5879 5878 5877 5876 5875 5874 5873 5871 5870 5868 5866 5864 5862 5860 5857 5855 5852 5849 5846 5843 5840 5836 5833 5829 5826 5822 5820 5818
5851 5854 5857 5861 5864 5867 5869 5872 5874 5875 5876 5877 5878 5879 5879 5879 5879 5879 5879 5879 5878 5878 5877 5876 5876 5874 5873 5872 5871 5869 5868 5866 5864 5861 5859 5857 5854 5851 5849 5846 5842 5839 5836 5832 5829 5825 5822 5820 5817
5849 5852 5855 5859 5862 5865 5868 5870 5872 5873 5875 5876 5877 5878 5878 5878 5878 5878 5878 5878 5877 5877 5876 5876 5875 5874 5873 5872 5870 5869 5867 5865 5863 5861 5858 5856 5854 5851 5848 5845 5842 5839 5835 5832 5829 5825 5822 5820 5818
5847 5851 5855 5858 5860 5863 5867 5869 5870 5872 5874 5875 5876 5877 5877 5877 5877 5877 5877 5877 5877 5876 5875 5875 5874 5873 5872 5871 5870 5868 5866 5865 5863 5861 5858 5856 5853 5850 5848 5845 5842 5839 5835 5832 5829 5826 5823 5821 5818
5846 5850 5854 5857 5860 5862 5866 5867 5869 5871 5872 5873 5875 5875 5875 5876 5876 5876 5876 5876 5876 5875 5875 5874 5873 5872 5871 5870 5869 5867 5866 5864 5862 5860 5858 5855 5853 5850 5847 5845 5842 5839 5835 5832 5829 5826 5824 5821 5819
5845 5849 5853 5856 5859 5862 5864 5867 5869 5870 5871 5872 5873 5874 5874 5874 5875 5874 5874 5874 5875 5874 5874 5873 5872 5872 5871 5870 5868 5867 5865 5864 5862 5860 5858 5855 5853 5850 5847 5844 5842 5839 5836 5833 5830 5827 5824 5822 5820
5845 5849 5852 5855 5857 5861 5863 5865 5868 5868 5870 5871 5872 5872 5873 5873 5873 5873 5873 5873 5874 5873 5873 5873 5872 5871 5870 5869 5868 5866 5865 5863 5861 5859 5857 5855 5852 5850 5847 5844 5841 5839 5836 5833 5830 5827 5825 5822 5820
5845 5849 5851 5853 5856 5859 5861 5864 5867 5868 5869 5870 5871 5871 5872 5872 5873 5873 5873 5873 5873 5873 5872 5872 5872 5871 5870 5868 5867 5866 5864 5862 5861 5859 5856 5854 5852 5849 5846 5844 5841 5838 5836 5833 5830 5828 5825 5823 5820
5844 5848 5852 5854 5855 5857 5859 5862 5866 5866 5867 5869 5870 5870 5871 5871 5872 5872 5872 5872 5872 5872 5872 5871 5871 5870 5869 5868 5867 5865 5863 5862 5860 5858 5856 5853 5851 5848 5846 5843 5841 5838 5835 5833 5830 5828 5825 5823 5820
5844 5847 5850 5853 5855 5857 5858 5861 5863 5864 5866 5868 5869 5869 5870 5870 5871 5871 5871 5871 5872 5871 5871 5871 5871 5870 5869 5867 5866 5865 5863 5861 5859 5857 5855 5852 5850 5847 5845 5842 5840 5837 5835 5832 5830 5827 5825 5822 5820
5844 5847 5849 5852 5853 5855 5857 5859 5862 5863 5865 5866 5867 5868 5869 5869 5870 5870 5870 5870 5871 5870 5870 5870 5870 5869 5868 5867 5866 5864 5862 5860 5858 5856 5854 5851 5848 5846 5843 5841 5839 5836 5834 5831 5829 5827 5824 5822 5820
5844 5847 5848 5851 5853 5855 5856 5861 5861 5862 5863 5865 5866 5867 5867 5868 5868 5869 5869 5869 5869 5869 5869 5869 5869 5868 5867 5866 5865 5863 5861 5859 5857 5855 5852 5849 5847 5844 5841 5839 5837 5834 5832 5830 5827 5825 5823 5821 5818
5843 5845 5848 5850 5852 5853 5856 5861 5859 5860 5862 5863 5864 5865 5866 5866 5867 5867 5868 5868 5868 5868 5868 5868 5867 5867 5866 5864 5863 5861 5860 5857 5855 5853 5850 5847 5844 5842 5839 5836 5834 5832 5830 5828 5825 5823 5821 5819 5816